Time,TemperatureF,DewpointF,PressureIn,WindDirection,WindDirectionDegrees,WindSpeedMPH,WindSpeedGustMPH,Humidity,HourlyPrecipIn,Conditions,Clouds,dailyrainin,SolarRadiationWatts/m^2,SoftwareType,DateUTC
2013-01-09 00:01:00,62.0,56.0,-100.00,NNE,18,16.0,24.0,80,0.00,,,-99.99,0.000000,,2013-01-09 10:01:00,
2013-01-09 00:32:00,62.0,56.0,-100.00,NNE,18,16.0,24.0,80,0.00,,,-99.99,0.000000,,2013-01-09 10:32:00,
2013-01-09 00:42:00,62.0,56.0,-100.00,NNE,18,16.0,24.0,80,0.00,,,-99.99,0.000000,,2013-01-09 10:42:00,
2013-01-09 00:52:00,62.0,56.0,-100.00,NNE,18,16.0,24.0,80,0.00,,,-99.99,0.000000,,2013-01-09 10:52:00,
2013-01-09 01:01:00,62.0,56.0,-100.00,NNE,12,15.0,24.0,81,0.00,,,0.00,0.000000,,2013-01-09 11:01:00,
2013-01-09 01:33:00,62.0,56.0,-100.00,NNE,12,15.0,24.0,81,0.00,,,0.00,0.000000,,2013-01-09 11:33:00,
2013-01-09 01:42:00,62.0,56.0,-100.00,NNE,12,15.0,24.0,81,0.00,,,0.00,0.000000,,2013-01-09 11:42:00,
2013-01-09 01:53:00,62.0,56.0,-100.00,NNE,12,15.0,24.0,81,0.00,,,0.00,0.000000,,2013-01-09 11:53:00,
2013-01-09 02:01:00,61.0,55.0,-100.00,North,8,15.0,26.0,82,0.00,,,0.00,0.000000,,2013-01-09 12:01:00,
2013-01-09 02:23:00,61.0,55.0,-100.00,North,8,15.0,26.0,82,0.00,,,0.00,0.000000,,2013-01-09 12:23:00,
2013-01-09 02:33:00,61.0,55.0,-100.00,North,8,15.0,26.0,82,0.00,,,0.00,0.000000,,2013-01-09 12:33:00,
2013-01-09 02:43:00,61.0,55.0,-100.00,North,8,15.0,26.0,82,0.00,,,0.00,0.000000,,2013-01-09 12:43:00,
2013-01-09 02:53:00,61.0,55.0,-100.00,North,8,15.0,26.0,82,0.00,,,0.00,0.000000,,2013-01-09 12:53:00,
2013-01-09 03:01:00,61.0,56.0,-100.00,NNE,17,14.0,25.0,83,0.00,,,0.00,0.000000,,2013-01-09 13:01:00,
2013-01-09 03:23:00,61.0,56.0,-100.00,NNE,17,14.0,25.0,83,0.00,,,0.00,0.000000,,2013-01-09 13:23:00,
2013-01-09 03:33:00,61.0,56.0,-100.00,NNE,17,14.0,25.0,83,0.00,,,0.00,0.000000,,2013-01-09 13:33:00,
2013-01-09 03:43:00,61.0,56.0,-100.00,NNE,17,14.0,25.0,83,0.00,,,0.00,0.000000,,2013-01-09 13:43:00,
2013-01-09 03:52:00,61.0,56.0,-100.00,NNE,17,14.0,25.0,83,0.00,,,0.00,0.000000,,2013-01-09 13:52:00,
2013-01-09 04:01:00,61.0,55.0,-100.00,North,1,12.0,21.0,82,0.00,,,0.00,0.000000,,2013-01-09 14:01:00,
2013-01-09 04:23:00,61.0,55.0,-100.00,North,1,12.0,21.0,82,0.00,,,0.00,0.000000,,2013-01-09 14:23:00,
2013-01-09 04:33:00,61.0,55.0,-100.00,North,1,12.0,21.0,82,0.00,,,0.00,0.000000,,2013-01-09 14:33:00,
2013-01-09 04:43:00,61.0,55.0,-100.00,North,1,12.0,21.0,82,0.00,,,0.00,0.000000,,2013-01-09 14:43:00,
2013-01-09 04:53:00,61.0,55.0,-100.00,North,1,12.0,21.0,82,0.00,,,0.00,0.000000,,2013-01-09 14:53:00,
2013-01-09 05:01:00,61.0,56.0,-100.00,North,9,13.0,21.0,84,0.00,,,0.00,0.000000,,2013-01-09 15:01:00,
2013-01-09 05:23:00,61.0,56.0,-100.00,North,9,13.0,21.0,84,0.00,,,0.00,0.000000,,2013-01-09 15:23:00,
2013-01-09 05:33:00,61.0,56.0,-100.00,North,9,13.0,21.0,84,0.00,,,0.00,0.000000,,2013-01-09 15:33:00,
2013-01-09 05:43:00,61.0,56.0,-100.00,North,9,13.0,21.0,84,0.00,,,0.00,0.000000,,2013-01-09 15:43:00,
2013-01-09 05:53:00,61.0,56.0,-100.00,North,9,13.0,21.0,84,0.00,,,0.00,0.000000,,2013-01-09 15:53:00,
2013-01-09 06:01:00,61.0,56.0,-100.00,NNE,13,12.0,19.0,84,0.00,,,0.00,0.000000,,2013-01-09 16:01:00,
2013-01-09 06:23:00,61.0,56.0,-100.00,NNE,13,12.0,19.0,84,0.00,,,0.00,0.000000,,2013-01-09 16:23:00,
2013-01-09 06:33:00,61.0,56.0,-100.00,NNE,13,12.0,19.0,84,0.00,,,0.00,0.000000,,2013-01-09 16:33:00,
2013-01-09 06:43:00,61.0,56.0,-100.00,NNE,13,12.0,19.0,84,0.00,,,0.00,0.000000,,2013-01-09 16:43:00,
2013-01-09 06:53:00,61.0,56.0,-100.00,NNE,13,12.0,19.0,84,0.00,,,0.00,0.000000,,2013-01-09 16:53:00,
2013-01-09 07:01:00,62.0,55.0,-100.00,NNE,16,10.0,19.0,78,0.00,,,0.00,1.000000,,2013-01-09 17:01:00,
2013-01-09 07:23:00,62.0,55.0,-100.00,NNE,16,10.0,19.0,78,0.00,,,0.00,1.000000,,2013-01-09 17:23:00,
2013-01-09 07:33:00,62.0,55.0,-100.00,NNE,16,10.0,19.0,78,0.00,,,0.00,1.000000,,2013-01-09 17:33:00,
2013-01-09 07:43:00,62.0,55.0,-100.00,NNE,16,10.0,19.0,78,0.00,,,0.00,1.000000,,2013-01-09 17:43:00,
2013-01-09 07:53:00,62.0,55.0,-100.00,NNE,16,10.0,19.0,78,0.00,,,0.00,1.000000,,2013-01-09 17:53:00,
2013-01-09 08:01:00,64.0,56.0,-100.00,NNE,24,16.0,23.0,75,0.00,,,0.00,71.000000,,2013-01-09 18:01:00,
2013-01-09 08:24:00,64.0,56.0,-100.00,NNE,24,16.0,23.0,75,0.00,,,0.00,71.000000,,2013-01-09 18:24:00,
2013-01-09 08:33:00,64.0,56.0,-100.00,NNE,24,16.0,23.0,75,0.00,,,0.00,71.000000,,2013-01-09 18:33:00,
2013-01-09 08:43:00,64.0,56.0,-100.00,NNE,24,16.0,23.0,75,0.00,,,0.00,71.000000,,2013-01-09 18:43:00,
2013-01-09 08:53:00,64.0,56.0,-100.00,NNE,24,16.0,23.0,75,0.00,,,0.00,71.000000,,2013-01-09 18:53:00,
2013-01-09 10:01:00,70.0,56.0,-100.00,NE,37,14.0,23.0,62,-99.99,,,0.00,410.000000,,2013-01-09 20:01:00,
2013-01-09 10:33:00,70.0,56.0,-100.00,NE,37,14.0,23.0,62,-99.99,,,0.00,410.000000,,2013-01-09 20:33:00,
2013-01-09 10:43:00,70.0,56.0,-100.00,NE,37,14.0,23.0,62,-99.99,,,0.00,410.000000,,2013-01-09 20:43:00,
2013-01-09 10:53:00,70.0,56.0,-100.00,NE,37,14.0,23.0,62,-99.99,,,0.00,410.000000,,2013-01-09 20:53:00,
2013-01-09 12:01:00,74.0,56.0,-100.00,NE,44,14.0,23.0,53,-99.99,,,0.00,759.000000,,2013-01-09 22:01:00,
2013-01-09 12:23:00,74.0,56.0,-100.00,NE,44,14.0,23.0,53,-99.99,,,0.00,759.000000,,2013-01-09 22:23:00,
2013-01-09 12:33:00,74.0,56.0,-100.00,NE,44,14.0,23.0,53,-99.99,,,0.00,759.000000,,2013-01-09 22:33:00,
2013-01-09 12:43:00,74.0,56.0,-100.00,NE,44,14.0,23.0,53,-99.99,,,0.00,759.000000,,2013-01-09 22:43:00,
2013-01-09 12:52:00,74.0,56.0,-100.00,NE,44,14.0,23.0,53,-99.99,,,0.00,759.000000,,2013-01-09 22:52:00,
2013-01-09 13:01:00,73.0,57.0,-100.00,NE,34,17.0,26.0,57,0.00,,,0.00,813.000000,,2013-01-09 23:01:00,
2013-01-09 13:33:00,73.0,57.0,-100.00,NE,34,17.0,26.0,57,0.00,,,0.00,813.000000,,2013-01-09 23:33:00,
2013-01-09 13:43:00,73.0,57.0,-100.00,NE,34,17.0,26.0,57,0.00,,,0.00,813.000000,,2013-01-09 23:43:00,
2013-01-09 13:53:00,73.0,57.0,-100.00,NE,34,17.0,26.0,57,0.00,,,0.00,813.000000,,2013-01-09 23:53:00,
2013-01-09 14:01:00,72.0,56.0,-100.00,NE,40,18.0,26.0,58,0.00,,,0.00,803.000000,,2013-01-10 00:01:00,
2013-01-09 14:33:00,72.0,56.0,-100.00,NE,40,18.0,26.0,58,0.00,,,0.00,803.000000,,2013-01-10 00:33:00,
2013-01-09 14:43:00,72.0,56.0,-100.00,NE,40,18.0,26.0,58,0.00,,,0.00,803.000000,,2013-01-10 00:43:00,
2013-01-09 14:53:00,72.0,56.0,-100.00,NE,40,18.0,26.0,58,0.00,,,0.00,803.000000,,2013-01-10 00:53:00,
2013-01-09 15:01:00,71.0,57.0,-100.00,NE,50,16.0,25.0,62,0.00,,,0.00,695.000000,,2013-01-10 01:01:00,
2013-01-09 15:33:00,71.0,57.0,-100.00,NE,50,16.0,25.0,62,0.00,,,0.00,695.000000,,2013-01-10 01:33:00,
2013-01-09 15:43:00,71.0,57.0,-100.00,NE,50,16.0,25.0,62,0.00,,,0.00,695.000000,,2013-01-10 01:43:00,
2013-01-09 15:53:00,71.0,57.0,-100.00,NE,50,16.0,25.0,62,0.00,,,0.00,695.000000,,2013-01-10 01:53:00,
2013-01-09 16:01:00,68.0,59.0,-100.00,NE,51,13.0,22.0,73,0.00,,,0.00,370.000000,,2013-01-10 02:01:00,
2013-01-09 16:22:00,68.0,59.0,-100.00,NE,51,13.0,22.0,73,0.00,,,0.00,370.000000,,2013-01-10 02:22:00,
2013-01-09 16:33:00,68.0,59.0,-100.00,NE,51,13.0,22.0,73,0.00,,,0.00,370.000000,,2013-01-10 02:33:00,
2013-01-09 16:43:00,68.0,59.0,-100.00,NE,51,13.0,22.0,73,0.00,,,0.00,370.000000,,2013-01-10 02:43:00,
2013-01-09 16:52:00,68.0,59.0,-100.00,NE,51,13.0,22.0,73,0.00,,,0.00,370.000000,,2013-01-10 02:52:00,
2013-01-09 17:01:00,64.0,59.0,-100.00,NE,42,11.0,23.0,83,0.00,,,0.00,251.000000,,2013-01-10 03:01:00,
2013-01-09 17:22:00,64.0,59.0,-100.00,NE,42,11.0,23.0,83,0.00,,,0.00,251.000000,,2013-01-10 03:22:00,
2013-01-09 17:33:00,64.0,59.0,-100.00,NE,42,11.0,23.0,83,0.00,,,0.00,251.000000,,2013-01-10 03:33:00,
2013-01-09 17:43:00,64.0,59.0,-100.00,NE,42,11.0,23.0,83,0.00,,,0.00,251.000000,,2013-01-10 03:43:00,
2013-01-09 17:52:00,64.0,59.0,-100.00,NE,42,11.0,23.0,83,0.00,,,0.00,251.000000,,2013-01-10 03:52:00,
2013-01-09 18:01:00,62.0,58.0,-100.00,NE,54,8.0,18.0,88,0.00,,,0.00,36.000000,,2013-01-10 04:01:00,
2013-01-09 18:32:00,62.0,58.0,-100.00,NE,54,8.0,18.0,88,0.00,,,0.00,36.000000,,2013-01-10 04:32:00,
2013-01-09 18:43:00,62.0,58.0,-100.00,NE,54,8.0,18.0,88,0.00,,,0.00,36.000000,,2013-01-10 04:43:00,
2013-01-09 18:52:00,62.0,58.0,-100.00,NE,54,8.0,18.0,88,0.00,,,0.00,36.000000,,2013-01-10 04:52:00,
2013-01-09 19:01:00,61.0,58.0,-100.00,NE,45,7.0,13.0,91,0.00,,,0.00,0.000000,,2013-01-10 05:01:00,
2013-01-09 19:33:00,61.0,58.0,-100.00,NE,45,7.0,13.0,91,0.00,,,0.00,0.000000,,2013-01-10 05:33:00,
2013-01-09 19:43:00,61.0,58.0,-100.00,NE,45,7.0,13.0,91,0.00,,,0.00,0.000000,,2013-01-10 05:43:00,
2013-01-09 19:52:00,61.0,58.0,-100.00,NE,45,7.0,13.0,91,0.00,,,0.00,0.000000,,2013-01-10 05:52:00,
2013-01-09 20:01:00,61.0,58.0,-100.00,NE,36,12.0,24.0,91,0.00,,,-99.99,0.000000,,2013-01-10 06:01:00,
2013-01-09 20:32:00,61.0,58.0,-100.00,NE,36,12.0,24.0,91,0.00,,,-99.99,0.000000,,2013-01-10 06:32:00,
2013-01-09 20:42:00,61.0,58.0,-100.00,NE,36,12.0,24.0,91,0.00,,,-99.99,0.000000,,2013-01-10 06:42:00,
2013-01-09 20:52:00,61.0,58.0,-100.00,NE,36,12.0,24.0,91,0.00,,,-99.99,0.000000,,2013-01-10 06:52:00,
2013-01-09 21:01:00,61.0,58.0,-100.00,NE,38,9.0,20.0,91,0.00,,,0.00,0.000000,,2013-01-10 07:01:00,
2013-01-09 21:22:00,61.0,58.0,-100.00,NE,38,9.0,20.0,91,0.00,,,0.00,0.000000,,2013-01-10 07:22:00,
2013-01-09 21:32:00,61.0,58.0,-100.00,NE,38,9.0,20.0,91,0.00,,,0.00,0.000000,,2013-01-10 07:32:00,
2013-01-09 21:42:00,61.0,58.0,-100.00,NE,38,9.0,20.0,91,0.00,,,0.00,0.000000,,2013-01-10 07:42:00,
2013-01-09 21:52:00,61.0,58.0,-100.00,NE,38,9.0,20.0,91,0.00,,,0.00,0.000000,,2013-01-10 07:52:00,
2013-01-09 22:01:00,60.0,57.0,-100.00,NNE,27,16.0,25.0,90,0.00,,,0.00,0.000000,,2013-01-10 08:01:00,
2013-01-09 22:32:00,60.0,57.0,-100.00,NNE,27,16.0,25.0,90,0.00,,,0.00,0.000000,,2013-01-10 08:32:00,
2013-01-09 22:42:00,60.0,57.0,-100.00,NNE,27,16.0,25.0,90,0.00,,,0.00,0.000000,,2013-01-10 08:42:00,
2013-01-09 22:52:00,60.0,57.0,-100.00,NNE,27,16.0,25.0,90,0.00,,,0.00,0.000000,,2013-01-10 08:52:00,
2013-01-09 23:01:00,60.0,56.0,-100.00,NNE,25,18.0,29.0,88,0.00,,,-99.99,0.000000,,2013-01-10 09:01:00,
2013-01-09 23:32:00,60.0,56.0,-100.00,NNE,25,18.0,29.0,88,0.00,,,-99.99,0.000000,,2013-01-10 09:32:00,
2013-01-09 23:43:00,60.0,56.0,-100.00,NNE,25,18.0,29.0,88,0.00,,,-99.99,0.000000,,2013-01-10 09:43:00,
2013-01-09 23:52:00,60.0,56.0,-100.00,NNE,25,18.0,29.0,88,0.00,,,-99.99,0.000000,,2013-01-10 09:52:00,